Flag for Norway Weather past 2 weeks in Drammen, Norway

Now
41 °F

Sprinkles. Passing clouds.


Feels Like: 29 °F
Forecast: 23 / 30 °F
Wind: 32 mph from Northwest

Location: Oslo / Fornebu

Current Time: Dec 23, 2014 at 4:55:52 AM

Latest Report: Dec 23, 2014 at 3:50 AM


Visibility: N/A

Pressure: 29.21 "Hg

Humidity: 76%

Dew point: 34 °F

Location of DrammenLocation

Historic Weather in Drammen — Graph

°F

Drammen temperature yesterday

Maximum temperature yesterday: 45 °F (at 6:50 AM)
Minimum temperature yesterday: 39 °F (at 1:20 AM)
Average temperature yesterday: 42 °F

Past Weeks' High & Low Weather Summary

 TemperatureHumidityPressure
High48 °F (Dec 14, 9:20 AM)100% (Dec 9, 6:20 PM)29.98 "Hg (Dec 9, 6:20 PM)
Low32 °F (Dec 15, 9:20 PM)41% (Dec 15, 11:20 AM)28.53 "Hg (Dec 11, 2:50 AM)
Average42 °F73%29.14 "Hg
* Reported Dec 8 3:20 AM — Dec 23 3:20 AM, Drammen, Weather by CustomWeather, © 2014

Note: Actual official high and low records may vary slightly from our data, if they occured in-between our weather recording intervals... More about our weather records

Advertising

Drammen weather history for previous 24 hours

 ConditionsComfort  
Time TempWeatherWind HumidityBarometerVisibility
3:20 AM
Dec 23
43 °FPassing clouds.35 mph71%29.18 "HgN/A
2:50 AM43 °FPassing clouds.36 mph71%29.18 "HgN/A
2:20 AM43 °FPassing clouds.32 mph76%29.18 "HgN/A
1:50 AM41 °FSprinkles. Passing clouds.30 mph87%29.18 "HgN/A
1:20 AM43 °FPassing clouds.29 mph76%29.18 "HgN/A
12:50 AM41 °FPassing clouds.30 mph76%29.18 "HgN/A
12:20 AM43 °FSprinkles. Passing clouds.35 mph76%29.18 "HgN/A
11:50 PM
Dec 22
43 °FPassing clouds.35 mph76%29.18 "HgN/A
11:20 PM41 °FSprinkles. Passing clouds.35 mph76%29.18 "HgN/A
10:50 PM41 °FPartly cloudy.30 mph76%29.18 "HgN/A
10:20 PM39 °FSprinkles. Passing clouds.35 mph81%29.18 "HgN/A
9:50 PM41 °FSprinkles. Passing clouds.36 mph76%29.15 "HgN/A
9:20 PM43 °FPassing clouds.38 mph76%29.15 "HgN/A
8:50 PM43 °FPassing clouds.33 mph71%29.15 "HgN/A
8:20 PM41 °FPartly cloudy.36 mph76%29.15 "HgN/A
7:50 PM41 °FPassing clouds.30 mph81%29.15 "HgN/A
7:20 PM43 °FRain. Passing clouds.33 mph76%29.15 "Hg3 mi
6:50 PM43 °FPassing clouds.35 mph71%29.12 "HgN/A
6:20 PM43 °FPassing clouds.41 mph71%29.12 "HgN/A
5:50 PM43 °FPassing clouds.35 mph71%29.12 "HgN/A
5:20 PM41 °FPassing clouds.35 mph81%29.12 "HgN/A
4:50 PM41 °FSprinkles. Passing clouds.38 mph81%29.12 "Hg6 mi
4:20 PM43 °FSprinkles. Passing clouds.36 mph76%29.12 "Hg6 mi
3:50 PM43 °FSprinkles. Passing clouds.41 mph76%29.12 "HgN/A
3:20 PM45 °FPassing clouds.45 mph61%29.09 "HgN/A
2:50 PM45 °FPartly sunny.46 mph57%29.09 "HgN/A
2:20 PM43 °FBroken clouds.47 mph71%29.09 "HgN/A
1:50 PM39 °FLight rain. Fog.48 mph87%29.09 "Hg2 mi
1:20 PM43 °FBroken clouds.41 mph71%29.06 "HgN/A
12:50 PM45 °FScattered clouds.41 mph76%29.06 "HgN/A
12:20 PM45 °FScattered clouds.45 mph66%29.06 "HgN/A
11:50 AM43 °FBroken clouds.41 mph71%29.06 "HgN/A
11:20 AM39 °FSprinkles. Partly sunny.36 mph87%29.09 "HgN/A
10:50 AM43 °FBroken clouds.40 mph81%29.09 "HgN/A
10:20 AM43 °FSprinkles. Partly sunny.44 mph81%29.09 "HgN/A
9:50 AM45 °FPartly sunny.38 mph71%29.09 "HgN/A
9:20 AM43 °FPartly sunny.33 mph81%29.09 "HgN/A
8:50 AM43 °FPassing clouds.32 mph71%29.12 "HgN/A
8:20 AM41 °FSprinkles. Partly cloudy.28 mph81%29.12 "HgN/A
7:50 AM43 °FPassing clouds.30 mph71%29.12 "HgN/A
7:20 AM43 °FSprinkles. Passing clouds.33 mph76%29.12 "HgN/A
6:50 AM45 °FPassing clouds.31 mph57%29.12 "HgN/A
6:20 AM43 °FPassing clouds.30 mph71%29.15 "HgN/A
5:50 AM43 °FPassing clouds.28 mph71%29.15 "HgN/A
5:20 AM41 °FPassing clouds.28 mph76%29.15 "HgN/A
4:50 AM41 °FPassing clouds.29 mph76%29.15 "HgN/A
4:20 AM43 °FPassing clouds.38 mph66%29.15 "HgN/A
Weather by CustomWeather, © 2014

See weather overviewHow to use our weather pages